GPS BIIF-10 (PRN 08)

Last updated on Tue Jul 01 2025 00:03:13 GMT+0000 (Coordinated Universal Time)

1 40730U 15033A 25181.22782298 -.00000066 00000+0 00000+0 0 9994 2 40730 54.2660 281.5790 0104018 25.2129 335.3281 2.00574394 72936
UTC large
Height (km)
Speed (km/s)
/
Latitude / Longitude
Inclination (degrees)
Orbital Period (minutes)
Azimuth
Elevation
Range (km)
Doppler Factor

Next 0 passes for location: London (51.5072 / 0.1276)

Sorry there are no passes over London.